Showing default

FLOCK 4G 24, 62637

Orbit data source: Space-Track

FLOCK 4G 24, 62637 is a payload satellite owned by Planet (US) in SSO that was launched on Tue, 14 Jan 2025 UTC via an FALCON 9 launch vehicle from the Air Force Western Test Range (AFWTR). Payload-class satellites include a variety of spacecraft equipped with specific instruments for various scientific and technological missions. These include communications satellites like Starlink; space stations such as the ISS; scientific satellites like the Hubble; Earth observation satellites from companies like Planet Labs, Umbra, and HawkEye 360; GPS; miniature CubeSats for education and research; and military/defense satellites.

Loading next visibility...
Identifier
62637, 2025-009AE
Orbit
SSO
Country
Flag of USUS
Related business
Manufacturer
Planet
Mission
Operational Commercial Imaging
Bus & Motor
CUBESAT 3U, Unknown motor
Mass
5.7 kg wet, 5.7 kg dry
Launch date (UTC)
2025-01-14 (9 months ago)
Launch vehicle
FALCON 9
Launch site
Air Force Western Test Range (AFWTR)
Object type
Payload
Rocket body
Debris
Shape & HBR
Box + 2 Pan, 1.0 m
Radar Cross Section
0.072 m², Medium (>0.1 m² and < 1m²)

Expand to show TLE details & history
Last TLE update: 19 hours ago

TLE from 19 hours ago
0 FLOCK 4G 24
1 62637U 25009AE  25300.47288926  .00011793  00000-0  49108-3 0  9992
2 62637  97.4234  19.3279 0004057  53.1357 307.0252 15.23883608 43411
Epoch: 2025-10-27T11:20Z
TLE epoch observation values (Epoch: 2025-10-27T11:20:57.632Z)
Latitude
0.00004°
Longitude
173.01353°
Altitude
495.556 km
Speed
7.618 km/s
True Right ascension
01h 17m 18s
True Declination
0° 00' 00"
Sunlit
Object was in full shadow at epoch
Visualization orbit readout
Latitude
Unknown
Longitude
Unknown
Altitude
Unknown
Speed
Unknown
Apparent Right ascension
Unknown
Apparent Declination
Unknown
Sunlit
N/A
Visualization observer readout
Local Sidereal Time
01:23:44
Azimuth
Unknown
Elevation
Unknown
Doppler factor
Unknown
Orbital elements
Apogee altitude
493.888 km
Perigee altitude
488.314 km
Semi-major axis
6,869.238 km
Eccentricity
0.00041
Inclination
97.4234°
RAAN
19.3279°
Arg. of periapsis
53.1357°
True anomaly
306.98807°
Mean anomaly
307.0252°
Eccentric anomaly
307.00664°
Mean motion
3.81224 °/min
Orbital period
94.43 mins
BSTAR
0.00049108
Loading maneuver chart data...
Computing Atmospheric mass density...
Loading historical data...
Loading historical data...
Loading historical data...
Loading historical data...
Loading historical data...
Loading historical data...
Loading historical data...

Documentation

Showing up to 5 results
|